Location: Unspecified
(0.0000°N, 0.0000°E)
Time: 11:29:29
(UTC+00:00)

Vanguard 1 - Pass Details

Date: 22 November 2019
Orbit: 652 x 3831 km, 34.3° (Epoch: 07 December)

Event Time Altitude Azimuth Distance (km) Brightness Sun altitude
Rises 18:13:58 0° 296° (WNW) 3,135 13.4 -6.5°
Reaches altitude 10° 18:16:00 10° 292° (WNW) 2,358 12.8 -7.0°
Maximum altitude 18:21:17 58° 212° (SSW) 1,209 10.8 -8.2°
Drops below altitude 10° 18:30:16 10° 135° (SE) 3,926 12.9 -10.3°
Sets 18:34:39 0° 132° (SE) 5,445 13.6 -11.4°
